Location: Carri�res
(48.9069°N, 2.1792°E)
Time: 17:09:30
(UTC+00:00)

SeaSat 1 - Pass Details

Date: 09 May 2021
Orbit: 744 x 747 km, 108.0° (Epoch: 12 June)

Event Time Altitude Azimuth Distance (km) Brightness Sun altitude
Rises 22:49:15 0° 41° (NE) 3,201 6.2 -22.2°
Reaches altitude 10° 22:52:07 10° 58° (ENE) 2,271 5.1 -22.3°
Enters shadow 22:55:08 19° 96° (E) 1,709 4.1 -22.5°
